Time,TemperatureF,DewpointF,PressureIn,WindDirection,WindDirectionDegrees,WindSpeedMPH,WindSpeedGustMPH,Humidity,HourlyPrecipIn,Conditions,Clouds,dailyrainin,SoftwareType,DateUTC
2013-02-11 00:02:00,24.0,23.0,-100.00,NNE,15,10.0,17.0,97,0.00,,,0.03,,2013-02-11 06:02:00,
2013-02-11 00:11:00,24.0,23.0,-100.00,NNE,30,12.0,17.0,97,0.00,,,0.03,,2013-02-11 06:11:00,
2013-02-11 00:21:00,24.0,23.0,-100.00,North,10,9.0,16.0,97,0.01,,,0.03,,2013-02-11 06:21:00,
2013-02-11 00:32:00,24.0,23.0,-100.00,North,5,9.0,14.0,98,0.00,,,0.03,,2013-02-11 06:32:00,
2013-02-11 00:42:00,23.0,23.0,-100.00,North,10,8.0,16.0,98,0.00,,,0.03,,2013-02-11 06:42:00,
2013-02-11 00:51:00,23.0,23.0,-100.00,North,5,7.0,14.0,98,0.00,,,0.03,,2013-02-11 06:51:00,
2013-02-11 01:01:00,23.0,23.0,-100.00,North,10,9.0,16.0,98,0.00,,,0.03,,2013-02-11 07:01:00,
2013-02-11 01:11:00,23.0,23.0,-100.00,North,5,11.0,16.0,98,0.00,,,0.03,,2013-02-11 07:11:00,
2013-02-11 01:21:00,23.0,23.0,-100.00,North,0,9.0,16.0,98,0.00,,,0.03,,2013-02-11 07:21:00,
2013-02-11 01:32:00,23.0,23.0,-100.00,North,5,8.0,15.0,98,0.00,,,0.03,,2013-02-11 07:32:00,
2013-02-11 02:21:00,22.0,21.0,-100.00,North,5,9.0,16.0,97,0.00,,,0.03,,2013-02-11 08:21:00,
2013-02-11 02:31:00,22.0,21.0,-100.00,North,0,7.0,17.0,97,0.00,,,0.03,,2013-02-11 08:31:00,
2013-02-11 02:42:00,22.0,21.0,-100.00,North,5,9.0,17.0,97,0.00,,,0.03,,2013-02-11 08:42:00,
2013-02-11 02:52:00,22.0,21.0,-100.00,North,5,7.0,15.0,97,0.00,,,0.03,,2013-02-11 08:52:00,
2013-02-11 03:01:00,22.0,21.0,-100.00,North,5,11.0,18.0,97,0.00,,,0.03,,2013-02-11 09:01:00,
2013-02-11 03:12:00,22.0,21.0,-100.00,North,0,6.0,17.0,97,0.00,,,0.03,,2013-02-11 09:12:00,
2013-02-11 03:21:00,22.0,21.0,-100.00,NNW,335,9.0,14.0,97,0.00,,,0.03,,2013-02-11 09:21:00,
2013-02-11 03:32:00,22.0,21.0,-100.00,North,355,9.0,16.0,97,0.00,,,0.03,,2013-02-11 09:32:00,
2013-02-11 03:41:00,22.0,21.0,-100.00,North,0,7.0,14.0,97,0.00,,,0.03,,2013-02-11 09:41:00,
2013-02-11 03:51:00,21.0,21.0,-100.00,North,0,9.0,15.0,97,0.00,,,0.03,,2013-02-11 09:51:00,
2013-02-11 04:01:00,21.0,21.0,-100.00,North,350,7.0,15.0,97,0.00,,,0.03,,2013-02-11 10:01:00,
2013-02-11 04:11:00,21.0,21.0,-100.00,North,5,7.0,14.0,97,0.00,,,0.03,,2013-02-11 10:11:00,
2013-02-11 04:31:00,21.0,19.0,-100.00,NNW,345,8.0,16.0,97,0.00,,,0.03,,2013-02-11 10:31:00,
2013-02-11 04:42:00,21.0,19.0,-100.00,North,355,9.0,16.0,97,0.00,,,0.03,,2013-02-11 10:42:00,
2013-02-11 04:51:00,21.0,19.0,-100.00,North,355,6.0,13.0,97,0.00,,,0.04,,2013-02-11 10:51:00,
2013-02-11 05:01:00,21.0,19.0,-100.00,North,350,9.0,13.0,97,0.00,,,0.04,,2013-02-11 11:01:00,
2013-02-11 05:11:00,21.0,19.0,-100.00,NNW,335,8.0,13.0,97,0.00,,,0.04,,2013-02-11 11:11:00,
2013-02-11 05:22:00,20.0,19.0,-100.00,North,350,7.0,14.0,97,0.00,,,0.04,,2013-02-11 11:22:00,
2013-02-11 05:32:00,20.0,19.0,-100.00,NNW,345,7.0,14.0,96,0.00,,,0.04,,2013-02-11 11:32:00,
2013-02-11 05:42:00,20.0,19.0,-100.00,NNW,345,6.0,12.0,96,0.00,,,0.04,,2013-02-11 11:42:00,
2013-02-11 05:52:00,20.0,19.0,-100.00,NW,320,7.0,13.0,96,0.00,,,0.04,,2013-02-11 11:52:00,
2013-02-11 06:03:00,20.0,19.0,-100.00,NNW,345,8.0,18.0,95,0.00,,,0.04,,2013-02-11 12:03:00,
2013-02-11 06:12:00,20.0,19.0,-100.00,NNW,340,8.0,16.0,95,0.00,,,0.04,,2013-02-11 12:12:00,
2013-02-11 06:22:00,20.0,19.0,-100.00,NNW,345,6.0,16.0,95,0.01,,,0.04,,2013-02-11 12:22:00,
2013-02-11 06:32:00,20.0,18.0,-100.00,North,350,10.0,14.0,95,0.00,,,0.04,,2013-02-11 12:32:00,
2013-02-11 06:42:00,19.0,18.0,-100.00,NNW,340,7.0,19.0,94,0.00,,,0.04,,2013-02-11 12:42:00,
2013-02-11 06:52:00,19.0,18.0,-100.00,NNW,340,6.0,12.0,94,0.00,,,0.04,,2013-02-11 12:52:00,
2013-02-11 07:02:00,19.0,18.0,-100.00,NNW,335,8.0,14.0,94,0.00,,,0.04,,2013-02-11 13:02:00,
2013-02-11 07:11:00,19.0,18.0,-100.00,North,350,8.0,17.0,93,0.00,,,0.04,,2013-02-11 13:11:00,
2013-02-11 07:22:00,19.0,18.0,-100.00,North,355,11.0,17.0,92,0.00,,,0.04,,2013-02-11 13:22:00,
2013-02-11 07:32:00,19.0,18.0,-100.00,NW,320,7.0,18.0,92,0.00,,,0.04,,2013-02-11 13:32:00,
2013-02-11 07:42:00,18.0,16.0,-100.00,North,0,7.0,14.0,93,0.00,,,0.04,,2013-02-11 13:42:00,
2013-02-11 07:52:00,18.0,16.0,-100.00,NW,325,7.0,15.0,93,0.00,,,0.04,,2013-02-11 13:52:00,
2013-02-11 08:02:00,18.0,16.0,-100.00,NNW,345,6.0,12.0,93,0.00,,,0.04,,2013-02-11 14:02:00,
2013-02-11 08:11:00,18.0,16.0,-100.00,North,0,10.0,14.0,93,0.00,,,0.04,,2013-02-11 14:11:00,
2013-02-11 08:21:00,18.0,16.0,-100.00,NNW,340,7.0,12.0,93,0.00,,,0.04,,2013-02-11 14:21:00,
2013-02-11 08:32:00,18.0,16.0,-100.00,NNW,340,7.0,14.0,93,0.00,,,0.04,,2013-02-11 14:32:00,
2013-02-11 08:42:00,18.0,16.0,-100.00,NNW,345,8.0,12.0,92,0.00,,,0.04,,2013-02-11 14:42:00,
2013-02-11 08:52:00,18.0,16.0,-100.00,NNW,330,7.0,16.0,92,0.00,,,0.04,,2013-02-11 14:52:00,
2013-02-11 09:02:00,18.0,16.0,-100.00,NNW,340,6.0,14.0,92,0.00,,,0.04,,2013-02-11 15:02:00,
2013-02-11 09:11:00,18.0,16.0,-100.00,NW,320,7.0,14.0,91,0.00,,,0.04,,2013-02-11 15:11:00,
2013-02-11 09:22:00,18.0,16.0,-100.00,NNW,340,10.0,12.0,91,0.00,,,0.04,,2013-02-11 15:22:00,
2013-02-11 09:32:00,18.0,16.0,-100.00,North,350,8.0,13.0,90,0.00,,,0.04,,2013-02-11 15:32:00,
2013-02-11 09:42:00,18.0,16.0,-100.00,NNW,340,7.0,16.0,90,0.00,,,0.04,,2013-02-11 15:42:00,
2013-02-11 09:52:00,18.0,16.0,-100.00,NW,325,7.0,14.0,89,0.00,,,0.04,,2013-02-11 15:52:00,
2013-02-11 10:02:00,18.0,16.0,-100.00,NNW,335,5.0,11.0,89,0.00,,,0.04,,2013-02-11 16:02:00,
2013-02-11 10:11:00,18.0,16.0,-100.00,NNW,335,9.0,16.0,87,0.00,,,0.04,,2013-02-11 16:11:00,
2013-02-11 10:22:00,18.0,14.0,-100.00,North,5,7.0,16.0,85,0.00,,,0.04,,2013-02-11 16:22:00,
2013-02-11 10:32:00,19.0,16.0,-100.00,NNW,335,10.0,16.0,84,0.00,,,0.04,,2013-02-11 16:32:00,
2013-02-11 10:42:00,19.0,14.0,-100.00,NNW,340,12.0,16.0,83,0.00,,,0.04,,2013-02-11 16:42:00,
2013-02-11 10:52:00,19.0,14.0,-100.00,North,0,12.0,17.0,82,0.00,,,0.04,,2013-02-11 16:52:00,
2013-02-11 11:01:00,19.0,14.0,-100.00,North,355,7.0,18.0,82,0.00,,,0.04,,2013-02-11 17:01:00,
2013-02-11 11:11:00,19.0,14.0,-100.00,NNW,330,6.0,17.0,82,0.00,,,0.04,,2013-02-11 17:11:00,
2013-02-11 11:21:00,19.0,14.0,-100.00,North,0,10.0,17.0,83,0.00,,,0.04,,2013-02-11 17:21:00,
2013-02-11 11:32:00,19.0,14.0,-100.00,NNW,335,7.0,19.0,82,0.00,,,0.04,,2013-02-11 17:32:00,
2013-02-11 11:42:00,20.0,16.0,-100.00,NW,310,8.0,17.0,81,0.00,,,0.04,,2013-02-11 17:42:00,
2013-02-11 11:52:00,20.0,14.0,-100.00,NNW,335,7.0,12.0,80,0.00,,,0.04,,2013-02-11 17:52:00,
2013-02-11 12:02:00,19.0,14.0,-100.00,NW,325,9.0,16.0,79,0.00,,,0.04,,2013-02-11 18:02:00,
2013-02-11 12:11:00,19.0,14.0,-100.00,NNW,335,7.0,17.0,79,0.00,,,0.04,,2013-02-11 18:11:00,
2013-02-11 12:21:00,19.0,14.0,-100.00,NNW,330,7.0,16.0,80,0.00,,,0.04,,2013-02-11 18:21:00,
2013-02-11 12:32:00,19.0,14.0,-100.00,NNW,340,9.0,16.0,80,0.00,,,0.04,,2013-02-11 18:32:00,
2013-02-11 12:42:00,20.0,14.0,-100.00,NNW,335,9.0,12.0,80,0.00,,,0.04,,2013-02-11 18:42:00,
2013-02-11 12:52:00,19.0,14.0,-100.00,NNW,335,11.0,18.0,79,0.00,,,0.04,,2013-02-11 18:52:00,
2013-02-11 13:02:00,20.0,14.0,-100.00,NNW,340,6.0,17.0,79,0.00,,,0.04,,2013-02-11 19:02:00,
2013-02-11 13:11:00,20.0,14.0,-100.00,NW,315,7.0,13.0,77,0.00,,,0.04,,2013-02-11 19:11:00,
2013-02-11 13:21:00,20.0,14.0,-100.00,NW,320,11.0,19.0,78,0.00,,,0.04,,2013-02-11 19:21:00,
2013-02-11 13:32:00,20.0,14.0,-100.00,NW,315,7.0,15.0,78,0.00,,,0.04,,2013-02-11 19:32:00,
2013-02-11 13:41:00,21.0,16.0,-100.00,NW,325,6.0,17.0,78,0.00,,,0.04,,2013-02-11 19:41:00,
2013-02-11 13:51:00,20.0,14.0,-100.00,NW,315,7.0,16.0,77,0.00,,,0.04,,2013-02-11 19:51:00,
2013-02-11 14:01:00,21.0,16.0,-100.00,WNW,285,7.0,14.0,77,0.00,,,0.04,,2013-02-11 20:01:00,
2013-02-11 14:11:00,20.0,14.0,-100.00,NW,320,11.0,16.0,77,0.00,,,0.04,,2013-02-11 20:11:00,
2013-02-11 14:21:00,20.0,14.0,-100.00,WNW,300,9.0,17.0,77,0.00,,,0.04,,2013-02-11 20:21:00,
2013-02-11 14:32:00,21.0,14.0,-100.00,NW,325,4.0,15.0,77,0.00,,,0.04,,2013-02-11 20:32:00,
2013-02-11 14:42:00,21.0,14.0,-100.00,WNW,300,7.0,18.0,77,0.00,,,0.04,,2013-02-11 20:42:00,
2013-02-11 14:52:00,21.0,16.0,-100.00,NW,325,7.0,16.0,77,0.00,,,0.04,,2013-02-11 20:52:00,
2013-02-11 15:02:00,21.0,14.0,-100.00,NNW,330,8.0,15.0,76,0.00,,,0.04,,2013-02-11 21:02:00,
2013-02-11 15:11:00,21.0,16.0,-100.00,NNW,340,7.0,15.0,76,0.00,,,0.04,,2013-02-11 21:11:00,
2013-02-11 15:21:00,22.0,16.0,-100.00,NW,315,7.0,15.0,76,0.00,,,0.04,,2013-02-11 21:21:00,
2013-02-11 15:32:00,22.0,16.0,-100.00,WNW,290,5.0,11.0,76,0.00,,,0.04,,2013-02-11 21:32:00,
2013-02-11 15:42:00,21.0,16.0,-100.00,NNW,330,7.0,12.0,75,0.00,,,0.04,,2013-02-11 21:42:00,
2013-02-11 15:52:00,22.0,16.0,-100.00,WNW,300,9.0,15.0,75,0.00,,,0.04,,2013-02-11 21:52:00,
2013-02-11 16:02:00,22.0,16.0,-100.00,NW,305,7.0,14.0,75,0.00,,,0.04,,2013-02-11 22:02:00,
2013-02-11 16:11:00,22.0,14.0,-100.00,NW,315,7.0,13.0,74,0.00,,,0.04,,2013-02-11 22:11:00,
2013-02-11 16:21:00,21.0,14.0,-100.00,NW,315,7.0,16.0,74,0.00,,,0.04,,2013-02-11 22:21:00,
2013-02-11 16:32:00,21.0,14.0,-100.00,NW,325,9.0,14.0,74,0.00,,,0.04,,2013-02-11 22:32:00,
2013-02-11 16:42:00,21.0,14.0,-100.00,NW,325,7.0,14.0,74,0.00,,,0.04,,2013-02-11 22:42:00,
2013-02-11 16:52:00,20.0,14.0,-100.00,North,355,4.0,11.0,74,0.00,,,0.04,,2013-02-11 22:52:00,
2013-02-11 17:02:00,20.0,14.0,-100.00,NW,310,5.0,11.0,74,0.00,,,0.04,,2013-02-11 23:02:00,
2013-02-11 17:11:00,20.0,14.0,-100.00,NW,325,4.0,11.0,74,0.00,,,0.04,,2013-02-11 23:11:00,
2013-02-11 17:21:00,20.0,14.0,-100.00,WNW,300,3.0,7.0,74,0.00,,,0.04,,2013-02-11 23:21:00,
2013-02-11 17:32:00,20.0,14.0,-100.00,NNW,330,3.0,6.0,75,0.00,,,0.04,,2013-02-11 23:32:00,
2013-02-11 17:41:00,19.0,12.0,-100.00,NW,320,2.0,6.0,77,0.00,,,0.04,,2013-02-11 23:41:00,
2013-02-11 17:52:00,18.0,12.0,-100.00,West,280,1.0,3.0,78,0.00,,,0.04,,2013-02-11 23:52:00,
2013-02-11 18:01:00,16.0,10.0,-100.00,WNW,285,1.0,2.0,79,0.00,,,0.03,,2013-02-12 00:01:00,
2013-02-11 18:11:00,15.0,10.0,-100.00,West,280,1.0,2.0,82,0.00,,,0.03,,2013-02-12 00:11:00,
2013-02-11 18:22:00,13.0,9.0,-100.00,WNW,285,1.0,2.0,84,0.00,,,0.03,,2013-02-12 00:22:00,
2013-02-11 18:32:00,12.0,9.0,-100.00,WNW,285,1.0,2.0,86,0.00,,,0.03,,2013-02-12 00:32:00,
2013-02-11 18:42:00,11.0,9.0,-100.00,West,275,1.0,2.0,87,0.00,,,0.03,,2013-02-12 00:42:00,
2013-02-11 18:52:00,11.0,9.0,-100.00,West,280,2.0,2.0,88,0.00,,,0.03,,2013-02-12 00:52:00,
2013-02-11 19:02:00,11.0,9.0,-100.00,West,270,2.0,3.0,89,0.00,,,0.03,,2013-02-12 01:02:00,
2013-02-11 19:11:00,11.0,9.0,-100.00,WNW,285,1.0,3.0,89,0.00,,,0.03,,2013-02-12 01:11:00,
2013-02-11 19:21:00,12.0,10.0,-100.00,West,280,1.0,3.0,90,0.00,,,0.03,,2013-02-12 01:21:00,
2013-02-11 19:32:00,12.0,10.0,-100.00,West,275,2.0,4.0,91,0.00,,,0.03,,2013-02-12 01:32:00,
2013-02-11 19:42:00,14.0,12.0,-100.00,West,275,2.0,4.0,91,0.00,,,0.03,,2013-02-12 01:42:00,
2013-02-11 19:51:00,14.0,12.0,-100.00,West,280,2.0,4.0,92,0.00,,,0.03,,2013-02-12 01:51:00,
2013-02-11 20:01:00,15.0,12.0,-100.00,WSW,240,1.0,2.0,92,0.00,,,0.02,,2013-02-12 02:01:00,
2013-02-11 20:12:00,15.0,14.0,-100.00,WSW,255,1.0,2.0,92,0.00,,,0.02,,2013-02-12 02:12:00,
2013-02-11 20:21:00,15.0,14.0,-100.00,WSW,255,1.0,2.0,93,0.00,,,0.02,,2013-02-12 02:21:00,
2013-02-11 20:31:00,15.0,14.0,-100.00,West,260,1.0,2.0,93,0.00,,,0.02,,2013-02-12 02:31:00,
2013-02-11 20:41:00,15.0,14.0,-100.00,SW,230,1.0,2.0,93,0.00,,,0.02,,2013-02-12 02:41:00,
2013-02-11 20:52:00,15.0,14.0,-100.00,SW,230,1.0,2.0,93,0.00,,,0.02,,2013-02-12 02:52:00,
2013-02-11 21:02:00,15.0,14.0,-100.00,WSW,250,1.0,2.0,93,0.00,,,0.02,,2013-02-12 03:02:00,
2013-02-11 21:11:00,15.0,14.0,-100.00,West,260,1.0,3.0,94,0.00,,,0.02,,2013-02-12 03:11:00,
2013-02-11 21:21:00,16.0,14.0,-100.00,WSW,245,1.0,2.0,94,0.00,,,0.02,,2013-02-12 03:21:00,
2013-02-11 21:31:00,16.0,14.0,-100.00,SW,220,1.0,3.0,94,0.00,,,0.02,,2013-02-12 03:31:00,
2013-02-11 21:41:00,16.0,14.0,-100.00,West,260,0.0,1.0,94,0.00,,,0.02,,2013-02-12 03:41:00,
2013-02-11 21:51:00,16.0,16.0,-100.00,WSW,250,2.0,4.0,95,0.00,,,0.02,,2013-02-12 03:51:00,
2013-02-11 22:01:00,17.0,16.0,-100.00,WSW,250,2.0,4.0,95,0.00,,,0.02,,2013-02-12 04:01:00,
2013-02-11 22:11:00,17.0,16.0,-100.00,West,265,2.0,4.0,95,0.00,,,0.02,,2013-02-12 04:11:00,
2013-02-11 22:21:00,17.0,16.0,-100.00,WSW,240,3.0,4.0,95,0.00,,,0.02,,2013-02-12 04:21:00,
2013-02-11 22:31:00,17.0,16.0,-100.00,WSW,245,3.0,5.0,95,0.00,,,0.02,,2013-02-12 04:31:00,
2013-02-11 22:41:00,17.0,16.0,-100.00,WSW,245,2.0,4.0,95,0.00,,,0.02,,2013-02-12 04:41:00,
2013-02-11 22:51:00,17.0,16.0,-100.00,WSW,245,2.0,4.0,94,0.00,,,0.02,,2013-02-12 04:51:00,
2013-02-11 23:01:00,17.0,16.0,-100.00,WSW,245,2.0,4.0,94,0.00,,,0.02,,2013-02-12 05:01:00,
2013-02-11 23:11:00,17.0,16.0,-100.00,WSW,245,3.0,6.0,94,0.00,,,0.02,,2013-02-12 05:11:00,
2013-02-11 23:21:00,17.0,16.0,-100.00,SW,235,2.0,6.0,94,0.00,,,0.02,,2013-02-12 05:21:00,
2013-02-11 23:31:00,17.0,16.0,-100.00,SW,235,4.0,6.0,93,0.00,,,0.02,,2013-02-12 05:31:00,
2013-02-11 23:42:00,17.0,16.0,-100.00,West,260,2.0,6.0,93,0.00,,,0.02,,2013-02-12 05:42:00,
2013-02-11 23:52:00,16.0,14.0,-100.00,WSW,250,3.0,6.0,93,0.00,,,0.02,,2013-02-12 05:52:00,